Location: Christian Church
(43.1438°N, 93.3896°W)
Time: 15:32:09
(UTC+00:00)

Daily predictions for brighter satellites

Satellite Brightness Start Highest point End
(mag) Time Altitude Azimuth Time Altitude Azimuth Time Altitude Azimuth
Meteor PRIRODA 3.9 12:01:08 10° NNE 12:04:45 69° E 12:08:22 10° S
CZ-4B R/B 3.1 12:02:05 10° NNE 12:05:37 60° E 12:09:11 10° S
SMAP 4.5 12:05:34 10° NNE 12:10:00 42° E 12:14:23 10° S
Cosmos 1151 Rocket 4.2 12:10:04 22° W 12:10:04 22° W 12:13:26 10° SW
H-2A R/B 2.7 12:06:53 10° SSE 12:11:04 55° ENE 12:15:21 10° N
SL-27 R/B 2.5 12:08:54 21° NNW 12:11:07 56° WSW 12:14:32 10° S
NOAA 11 4.1 12:07:23 10° N 12:12:53 78° WNW 12:18:21 10° SSW
Cosmos 1515 4.2 12:10:22 10° N 12:14:09 59° E 12:17:53 10° SSE
Meteor 2-19 Rocket 4.4 12:08:21 10° SSW 12:14:21 64° W 12:20:22 10° N
Cosmos 1340 Rocket 2.7 12:12:13 10° SSW 12:16:09 79° W 12:20:11 10° N
Lacrosse 4 Rocket 4.2 12:15:22 10° NNE 12:16:35 11° NE 12:17:48 10° NE
CZ-2C R/B 2.9 12:12:33 10° NNE 12:17:29 88° WNW 12:22:39 10° SSW
SL-8 R/B 4.2 12:16:55 19° W 12:20:01 46° SW 12:24:34 10° SE
H-2A R/B 4.1 12:19:39 10° NE 12:23:57 30° E 12:28:15 10° SSE
ATLAS 5 CENTAUR R/B 1.4 12:22:00 10° SW 12:25:43 52° NW 12:29:54 10° NNE
Cosmos 1777 Rocket 4.1 12:21:40 10° SW 12:26:46 54° WNW 12:31:55 10° NNE
NOSS 2 (A) 4.0 12:28:04 18° NW 12:29:54 72° SW 12:32:17 10° SSE
Cosmos 773 Rocket 4.4 12:25:51 10° NW 12:30:43 41° WSW 12:35:32 10° S
USA 32 4.0 12:26:48 10° N 12:32:04 83° W 12:37:18 10° S
Meteor 1-27 Rocket 3.9 12:26:50 10° NNW 12:32:21 53° W 12:37:55 10° S
BREEZE-M DEB 3.7 12:31:56 10° WSW 12:35:12 89° SE 12:45:56 10° ENE
CZ-4B R/B 2.4 12:32:29 10° SSE 12:35:40 47° ENE 12:38:50 10° N
Cosmos 1939 Rocket 2.7 12:34:41 10° N 12:38:37 75° WNW 12:42:27 10° SSW
Alouette 2 Rocket 3.2 12:36:03 10° NNW 12:39:38 59° W 12:43:15 10° S
Meteor 1-31 Rocket 4.3 12:38:50 10° NNW 12:41:21 17° WNW 12:43:52 10° WSW
Envisat 4.3 12:40:59 10° NNW 12:44:27 19° WNW 12:47:53 10° WSW
CENTAUR R/B 4.3 12:40:27 10° NW 12:44:46 17° NNW 12:49:32 10° NNE
DMSP B5D2-2 4.4 12:40:35 10° S 12:45:34 45° W 12:50:34 10° NNW
COSMO-SKYMED 1 4.3 12:43:54 10° WSW 12:46:13 14° W 12:48:32 10° WNW
NOAA 6 4.1 12:41:43 10° NNE 12:46:52 87° E 12:51:59 10° SSW
SL-4 R/B 2.5 12:44:05 10° SW 12:47:31 53° SE 12:51:12 10° ENE
Cosmos 158 Rocket 4.1 12:45:45 10° NNW 12:50:50 62° WSW 12:56:02 10° S
Cosmos 1633 Rocket 4.2 12:47:46 10° SSE 12:51:56 49° E 12:56:07 10° NNE
Okean 1 3.3 12:48:59 10° N 12:52:57 85° W 12:56:53 10° S
CZ-2D R/B 3.4 12:51:50 10° NNE 12:55:38 78° ESE 12:59:24 10° S
Cosmos 2026 Rocket 4.0 12:49:25 10° SSW 12:55:45 71° W 13:02:02 10° N
Meteor 1-25 Rocket 4.3 12:52:43 10° SSW 12:58:13 57° WNW 13:03:43 10° N
Cosmos 1980 Rocket 2.6 23:02:18 10° NNW 23:07:40 41° ENE 23:12:58 10° SE
Cosmos 1898 Rocket 3.5 23:02:25 10° NNW 23:07:41 81° ENE 23:12:53 10° SSE
Cosmos 1602 3.9 23:08:32 10° N 23:12:20 52° E 23:16:07 10° SSE
SMAP 3.3 23:09:28 10° SE 23:13:55 48° ENE 23:18:24 10° N
Cosmos 2369 3.8 23:09:33 10° NNW 23:15:14 59° ENE 23:20:52 10° SE
Cosmos 1743 Rocket 3.6 23:11:06 10° N 23:15:26 88° W 23:19:46 10° S
ISS -3.4 23:12:41 10° NW 23:16:00 47° NNE 23:19:17 10° ESE
ADEOS 4.5 23:11:31 10° S 23:16:37 55° WSW 23:21:46 10° NNW
CORIOLIS 4.4 23:11:31 10° SE 23:16:40 48° ENE 23:21:52 10° N
FengYun 1-2 T 4.2 23:12:20 10° SSE 23:17:52 69° ENE 23:23:23 10° N
CZ-4C R/B 3.2 23:11:07 10° NNW 23:18:02 47° NE 23:26:02 10° ESE
SL-16 R/B 3.6 23:18:10 10° N 23:21:58 18° NE 23:25:45 10° E
Cosmos 2082 Rocket 2.3 23:17:52 10° S 23:23:28 62° ESE 23:29:04 10° NNE
Cosmos 1939 Rocket 2.9 23:21:02 10° SSE 23:25:06 67° ENE 23:29:09 10° N
Cosmos 1627 Rocket 4.4 23:19:42 10° N 23:25:51 67° E 23:31:55 10° SSE
Cosmos 2279 Rocket 4.4 23:20:43 10° SSE 23:26:25 40° E 23:32:07 10° NNE
Cosmos 1666 Rocket 4.2 23:22:41 10° N 23:26:42 33° ENE 23:30:39 10° SE
Cosmos 1763 Rocket 4.4 23:21:54 10° SW 23:26:47 48° WNW 23:31:45 10° N
Okean O Rocket 3.0 23:23:47 10° ESE 23:26:47 18° ENE 23:29:49 10° NNE
Cosmos 44 Rocket 4.2 23:25:27 10° NNW 23:29:39 27° NE 23:33:44 10° ESE
Cosmos 1500 3.2 23:27:15 10° N 23:30:56 54° E 23:34:35 10° SSE
ARGOS 4.1 23:28:18 10° ESE 23:32:42 26° ENE 23:37:04 10° N
Cosmos 841 Rocket 3.5 23:30:08 10° SSW 23:35:18 89° E 23:40:29 10° NNE
Cosmos 1782 2.7 23:33:31 10° S 23:37:30 85° E 23:41:30 10° N
CZ-4B DEB 4.2 23:32:24 10° SSE 23:37:50 63° ENE 23:43:16 10° N
CZ-2D R/B 3.6 23:34:32 10° SE 23:38:08 41° ENE 23:41:45 10° N
Cosmos 2278 3.9 23:32:48 10° NNW 23:38:23 51° ENE 23:43:53 10° SE
CZ-2C R/B 3.8 23:34:26 10° S 23:39:13 53° W 23:43:53 10° NNW
Meteor 2-14 Rocket 4.4 23:33:43 10° N 23:39:51 78° E 23:45:54 10° SSE
Cosmos 1833 Rocket 3.7 23:35:17 10° SW 23:40:39 46° WNW 23:46:06 10° NNE
ATLAS CENTAUR R/B 3.6 23:31:20 10° WSW 23:41:43 55° NW 23:45:46 12° NE
NOSS 2-2 (C) 4.4 23:36:59 10° NW 23:42:23 82° NE 23:50:00 10° SE
H-2A R/B 2.2 23:37:42 10° SE 23:42:37 48° ENE 23:47:26 10° N
Cosmos 1937 Rocket 3.9 23:38:43 10° NNW 23:44:00 68° WSW 23:49:15 10° S
SKYMED 2 4.4 23:40:12 10° NE 23:44:01 29° E 23:47:48 10° SSE
USA 307 4.5 23:41:19 10° NW 23:44:35 21° N 23:46:33 16° NE
Cosmos 1634 Rocket 4.1 23:40:01 10° S 23:46:20 89° E 23:52:42 10° N
Sich 1 3.1 23:42:51 10° N 23:47:10 82° W 23:51:29 10° S
USA 267 3.5 23:41:27 11° NE 23:47:47 70° NW 23:54:16 10° WSW
Cosmos 372 Rocket 4.0 23:42:42 10° NNW 23:47:59 84° ENE 23:53:14 10° SSE
Cosmos 2026 Rocket 4.0 23:43:44 10° N 23:49:53 83° W 23:55:55 10° S
Cosmos 1125 Rocket 4.4 23:46:11 10° N 23:50:37 27° ENE 23:55:03 10° ESE
COSMOS 2406 4.1 23:45:43 10° SW 23:51:17 50° WNW 23:56:52 10° NNE
Cosmos 1900 4.4 23:46:37 10° SSW 23:51:22 59° ESE 23:55:10 16° NE
Cosmos 1805 Rocket 4.5 23:50:58 10° NNW 23:55:11 51° W 23:59:22 10° S
